Showing default

YAOGAN-30 K, 43170

Orbit data source: Space-Track

YAOGAN-30 K, 43170 is a payload satellite owned by PLA SSF (CN) in LEO that was launched on Thu, 25 Jan 2018 UTC via a CHANG ZHENG 2C launch vehicle from the Xichang Space Center, China (XSC). Payload-class satellites include a variety of spacecraft equipped with specific instruments for various scientific and technological missions. These include communications satellites like Starlink; space stations such as the ISS; scientific satellites like the Hubble; Earth observation satellites from companies like Planet Labs, Umbra, and HawkEye 360; GPS; miniature CubeSats for education and research; and military/defense satellites.

Loading next visibility...
Identifier
43170, 2018-011B
Orbit
LEO
Country
Flag of CNCN / PRC
Related business
Manufacturer
SECM
Mission
Operational Defense Sigint
Bus & Motor
Unknown
Mass
~500 kg wet, ~500 kg dry
Launch date (UTC)
2018-01-25 (8 years ago)
Launch vehicle
CHANG ZHENG 2C
Launch site
Xichang Space Center, China (XSC)
Object type
Payload
Rocket body
Debris
Shape & HBR
Box + 2 Pan, 0.5 m
Radar Cross Section
0.446 m², Large (>1 m²)

Expand to show TLE details & history
Last TLE update: 5 hours ago

TLE from 5 hours ago
0 YAOGAN-30 K
1 43170U 18011B   26035.85605015  .00004464  00000-0  33704-3 0  9990
2 43170  34.9945 237.0427 0004372 261.4919  98.5294 15.01855971438233
Epoch: 2026-02-04T20:32Z
TLE epoch observation values (Epoch: 2026-02-04T20:32:42.732Z)
Latitude
-0.00001°
Longitude
153.84801°
Altitude
560.541 km
Speed
7.583 km/s
True Right ascension
15h 48m 10s
True Declination
0° 00' 00"
Sunlit
Object was in daylight at epoch
Visualization orbit readout
Latitude
Unknown
Longitude
Unknown
Altitude
Unknown
Speed
Unknown
Apparent Right ascension
Unknown
Apparent Declination
Unknown
Sunlit
N/A
Visualization observer readout
Local Sidereal Time
03:54:38
Azimuth
Unknown
Elevation
Unknown
Doppler factor
Unknown
Orbital elements
Apogee altitude
567.43 km
Perigee altitude
561.359 km
Semi-major axis
6,942.531 km
Eccentricity
0.00044
Inclination
34.9945°
RAAN
237.0427°
Arg. of periapsis
261.4919°
True anomaly
98.57894°
Mean anomaly
98.5294°
Eccentric anomaly
98.55417°
Mean motion
3.75203 °/min
Orbital period
95.95 mins
BSTAR
0.00033704
Loading maneuver chart data...
Computing Atmospheric mass density...
Loading historical data...
Loading historical data...
Loading historical data...
Loading historical data...
Loading historical data...
Loading historical data...
Loading historical data...
Other satellites on launch #11 in the year 2018 (2018-01-25 UTC)

Documentation

Showing up to 5 results
|